Location: Palomar Mountain Lodge
(33.3110°N, 116.8495°W)
Time: 13:41:18
(UTC-07:00)

Cosmos 1743 Rocket - Pass Details

Date: 12 July 2018
Orbit: 605 x 632 km, 82.6° (Epoch: 22 July)

Event Time Altitude Azimuth Distance (km) Brightness Sun altitude
Exits shadow 20:52:08 10° 154° (SSE) 1,987 5.6 -10.4°
Maximum altitude 20:56:05 33° 91° (E) 1,056 4.3 -11.1°
Drops below altitude 10° 21:00:05 10° 27° (NNE) 2,012 6.3 -11.8°
Sets 21:02:29 0° 18° (NNE) 2,925 7.3 -12.2°
